This is the latest recevied weather packets stored in our database for station/object SV9TNF-57. If no packets are shown the sender has not sent any weather packets the latest 10 day(s).
| Time | Temp. | Humidity | Pressure | Rain* | Wind** | Luminosity | Snow |
|---|---|---|---|---|---|---|---|
| 1788255793 | 31.67° C | 34% | 995 hPa | 0 mm | 8.05 m/s, 134° | - | - |
| 1788255493 | 32.22° C | 33% | 995 hPa | 0 mm | 6.71 m/s, 348° | - | - |
| 1788255220 | 32.22° C | 34% | 994.9 hPa | 0 mm | 0.89 m/s, 267° | - | - |
| 1788254892 | 32.22° C | 35% | 995.3 hPa | 0 mm | 6.71 m/s, 352° | - | - |
| 1788254592 | 31.67° C | 36% | 995.1 hPa | 0 mm | 8.49 m/s, 351° | - | - |
| 1788254292 | 32.22° C | 34% | 995 hPa | 0 mm | 5.36 m/s, 1° | - | - |
| 1788253992 | 31.67° C | 35% | 994.9 hPa | 0 mm | 0.89 m/s, 267° | - | - |
| 1788253692 | 31.67° C | 35% | 995.2 hPa | 0 mm | 5.36 m/s, 300° | - | - |
| 1788253392 | 31.67° C | 35% | 995 hPa | 0 mm | 5.36 m/s, 257° | - | - |
| 1788253091 | 31.67° C | 36% | 995 hPa | 0 mm | 0.89 m/s, 159° | - | - |
| 1788252792 | 31.67° C | 35% | 995.2 hPa | 0 mm | 4.02 m/s, 3° | - | - |
| 1788252492 | 31.67° C | 35% | 995.1 hPa | 0 mm | 3.58 m/s, 10° | - | - |
| 1788252191 | 31.67° C | 35% | 994.9 hPa | 0 mm | 2.68 m/s, 1° | - | - |
| 1788251891 | 31.67° C | 35% | 994.8 hPa | 0 mm | 8.49 m/s, 317° | - | - |
| 1788251591 | 31.67° C | 35% | 995 hPa | 0 mm | 4.92 m/s, 331° | - | - |
| 1788251291 | 31.67° C | 34% | 995 hPa | 0 mm | 4.47 m/s, 16° | - | - |
| 1788250991 | 31.11° C | 33% | 994.8 hPa | 0 mm | 4.02 m/s, 346° | - | - |
| 1788250691 | 31.11° C | 33% | 994.7 hPa | 0 mm | 6.71 m/s, 299° | - | - |
| 1788250391 | 31.67° C | 34% | 994.9 hPa | 0 mm | 1.34 m/s, 312° | - | - |
| 1788250091 | 31.11° C | 34% | 994.9 hPa | 0 mm | 5.36 m/s, 296° | - | - |
| 1788249790 | 31.11° C | 33% | 994.9 hPa | 0 mm | 2.24 m/s, 339° | - | - |
| 1788249491 | 31.11° C | 34% | 994.9 hPa | 0 mm | 5.81 m/s, 338° | - | - |
| 1788249190 | 31.11° C | 35% | 994.8 hPa | 0 mm | 8.05 m/s, 324° | - | - |
| 1788248890 | 31.11° C | 34% | 994.7 hPa | 0 mm | 4.92 m/s, 346° | - | - |
| 1788248590 | 30.56° C | 34% | 994.7 hPa | 0 mm | 9.39 m/s, 341° | - | - |
* Rain latest hour (hover to see other rain measurements)
** Current wind speed in m/s (hover to see current wind gust speed)